Location: Igri�s
(42.2144°N, 0.4320°W)
Time: 10:19:43
(UTC+00:00)

CENTAUR R/B - Pass Details

Date: 13 August 2020
Orbit: 754 x 1434 km, 63.5° (Epoch: 17 September)

Event Time Altitude Azimuth Distance (km) Brightness Sun altitude
Rises 22:26:57 0° 251° (WSW) 3,461 5.5 -29.0°
Reaches altitude 10° 22:29:35 10° 262° (W) 2,612 4.9 -29.2°
Maximum altitude 22:34:59 31° 324° (NW) 1,699 4.3 -29.7°
Drops below altitude 10° 22:41:15 10° 25° (NNE) 3,047 5.5 -30.2°
Sets 22:44:35 0° 35° (NE) 4,129 6.2 -30.4°
